| time (UTC) | temp F | wind direction | speed MPH | gust MPH | rain 1hr in | rain 24hr in | rain mn in | humidity % | barometer mb |
| 20260508034553 | 72 | 0 | 0.0 | 5.0 | 0.00 | 0.00 | 0.00 | 82 | 1013.2 |
| 20260508033059 | 71 | 104 | 1.0 | 4.0 | 0.00 | 0.00 | 0.00 | 84 | 1012.7 |
| 20260508031552 | 71 | 0 | 0.0 | 0.0 | 0.00 | 0.00 | 0.00 | 85 | 1013.7 |
| 20260508030055 | 71 | 0 | 0.0 | 0.0 | 0.00 | 0.00 | 0.00 | 83 | 1014.2 |
| 20260508024600 | 72 | 0 | 0.0 | 1.0 | 0.00 | 0.00 | 0.00 | 82 | 1014.0 |
| 20260508023056 | 72 | 0 | 0.0 | 0.0 | 0.00 | 0.00 | 0.00 | 81 | 1013.8 |
| 20260508021611 | 73 | 31 | 0.0 | 1.0 | 0.00 | 0.00 | 0.00 | 81 | 1013.6 |
| 20260508020101 | 73 | 0 | 0.0 | 1.0 | 0.00 | 0.00 | 0.00 | 79 | 1013.7 |
| 20260508014552 | 74 | 0 | 0.0 | 1.0 | 0.00 | 0.00 | 0.00 | 77 | 1013.5 |
| 20260508013054 | 74 | 0 | 0.0 | 4.0 | 0.00 | 0.00 | 0.00 | 77 | 1013.7 |
| 20260508011607 | 74 | 0 | 0.0 | 1.0 | 0.00 | 0.00 | 0.00 | 79 | 1013.5 |
| 20260508010054 | 74 | 0 | 0.0 | 3.0 | 0.00 | 0.00 | 0.00 | 79 | 1013.7 |
| 20260508004557 | 75 | 4 | 1.0 | 4.0 | 0.00 | 0.00 | 0.00 | 78 | 1013.9 |
| 20260508003051 | 75 | 57 | 1.0 | 8.0 | 0.00 | 0.00 | 0.00 | 77 | 1013.5 |
| 20260508001553 | 75 | 62 | 2.0 | 6.0 | 0.00 | 0.00 | 0.00 | 77 | 1013.6 |
| 20260508000052 | 75 | 23 | 3.0 | 6.0 | 0.00 | 0.00 | 0.00 | 77 | 1013.7 |
| 20260507234557 | 76 | 347 | 2.0 | 5.0 | 0.00 | 0.00 | 0.00 | 78 | 1013.8 |
| 20260507233055 | 77 | 342 | 2.0 | 5.0 | 0.00 | 0.00 | 0.00 | 77 | 1013.8 |
| 20260507231551 | 78 | 54 | 2.0 | 5.0 | 0.00 | 0.00 | 0.00 | 76 | 1013.6 |
| 20260507230053 | 78 | 356 | 1.0 | 4.0 | 0.00 | 0.00 | 0.00 | 76 | 1013.5 |
| 20260507224556 | 78 | 352 | 0.0 | 3.0 | 0.00 | 0.00 | 0.00 | 77 | 1013.4 |
| 20260507223056 | 78 | 38 | 1.0 | 6.0 | 0.00 | 0.00 | 0.00 | 75 | 1013.2 |
| 20260507221553 | 77 | 32 | 1.0 | 6.0 | 0.00 | 0.00 | 0.00 | 79 | 1013.3 |
| 20260507220051 | 77 | 321 | 1.0 | 6.0 | 0.00 | 0.00 | 0.00 | 77 | 1013.3 |
| 20260507214549 | 77 | 6 | 1.0 | 6.0 | 0.00 | 0.00 | 0.00 | 78 | 1013.6 |
| 20260507213051 | 77 | 53 | 0.0 | 6.0 | 0.00 | 0.00 | 0.00 | 78 | 1013.8 |
| 20260507211555 | 76 | 0 | 1.0 | 6.0 | 0.00 | 0.00 | 0.00 | 79 | 1013.9 |
| 20260507210053 | 77 | 319 | 0.0 | 3.0 | 0.00 | 0.00 | 0.00 | 79 | 1014.1 |
| 20260507204553 | 76 | 75 | 2.0 | 7.0 | 0.00 | 0.00 | 0.00 | 77 | 1014.2 |
| 20260507203053 | 76 | 8 | 3.0 | 8.0 | 0.00 | 0.00 | 0.00 | 77 | 1014.2 |
| 20260507201605 | 76 | 11 | 2.0 | 7.0 | 0.00 | 0.00 | 0.00 | 77 | 1014.4 |
| 20260507200057 | 77 | 19 | 3.0 | 7.0 | 0.00 | 0.00 | 0.00 | 76 | 1014.4 |
| 20260507194551 | 76 | 1 | 1.0 | 5.0 | 0.00 | 0.00 | 0.00 | 79 | 1014.3 |
| 20260507193054 | 74 | 36 | 3.0 | 10.0 | 0.00 | 0.00 | 0.00 | 79 | 1014.7 |
| 20260507191552 | 73 | 46 | 2.0 | 6.0 | 0.00 | 0.00 | 0.00 | 81 | 1015.2 |
| 20260507190051 | 72 | 44 | 5.0 | 9.0 | 0.00 | 0.00 | 0.00 | 82 | 1015.5 |
| 20260507184551 | 72 | 24 | 2.0 | 6.0 | 0.00 | 0.00 | 0.00 | 83 | 1015.8 |
| 20260507183054 | 71 | 360 | 3.0 | 7.0 | 0.00 | 0.00 | 0.00 | 83 | 1015.9 |
| 20260507181553 | 71 | 31 | 3.0 | 9.0 | 0.00 | 0.00 | 0.00 | 83 | 1015.8 |
| 20260507180053 | 70 | 350 | 3.0 | 9.0 | 0.00 | 0.00 | 0.00 | 84 | 1016.0 |
| 20260507174601 | 70 | 332 | 2.0 | 7.0 | 0.00 | 0.00 | 0.00 | 84 | 1016.1 |
| 20260507173053 | 70 | 45 | 2.0 | 9.0 | 0.00 | 0.00 | 0.00 | 86 | 1016.1 |
| 20260507171604 | 68 | 25 | 3.0 | 6.0 | 0.00 | 0.00 | 0.00 | 85 | 1016.6 |
| 20260507170055 | 67 | 35 | 2.0 | 6.0 | 0.00 | 0.00 | 0.00 | 88 | 1016.7 |
| 20260507164551 | 67 | 11 | 3.0 | 7.0 | 0.00 | 0.00 | 0.00 | 88 | 1016.8 |
| 20260507163110 | 66 | 200 | 2.0 | 6.0 | 0.00 | 0.00 | 0.00 | 88 | 1016.6 |
| 20260507161554 | 66 | 13 | 3.0 | 8.0 | 0.00 | 0.00 | 0.00 | 89 | 1016.5 |
| 20260507160055 | 65 | 8 | 3.0 | 7.0 | 0.00 | 0.00 | 0.00 | 90 | 1016.0 |
| 20260507154557 | 64 | 333 | 3.0 | 7.0 | 0.00 | 0.00 | 0.00 | 91 | 1016.0 |
| 20260507153051 | 64 | 341 | 2.0 | 9.0 | 0.00 | 0.00 | 0.00 | 91 | 1016.1 |
| 20260507151552 | 65 | 20 | 3.0 | 8.0 | 0.00 | 0.00 | 0.00 | 91 | 1016.0 |
| 20260507150055 | 0 | 0.0 | 0.0 | 0.00 | 0.00 | 0.00 | 1016.4 | ||
| 20260507144614 | 0 | 0.0 | 0.0 | 0.00 | 0.00 | 0.00 | 1016.6 | ||
| 20260507143054 | 0 | 0.0 | 0.0 | 0.00 | 0.00 | 0.00 | 1016.4 | ||
| 20260507141610 | 0 | 0.0 | 0.0 | 0.00 | 0.00 | 0.00 | 1015.9 | ||
| 20260507140055 | 0 | 0.0 | 0.0 | 0.00 | 0.00 | 0.00 | 1015.6 | ||
| 20260507134553 | 0 | 0.0 | 0.0 | 0.00 | 0.00 | 0.00 | 1015.2 | ||
| 20260507133051 | 0 | 0.0 | 0.0 | 0.00 | 0.00 | 0.00 | 1015.1 | ||
| 20260507131553 | 0 | 0.0 | 0.0 | 0.00 | 0.00 | 0.00 | 1015.7 | ||
| 20260507130108 | 0 | 0.0 | 0.0 | 0.00 | 0.00 | 0.00 | 1016.1 | ||
| 20260507124556 | 0 | 0.0 | 0.0 | 0.00 | 0.00 | 0.00 | 1016.0 | ||
| 20260507123053 | 0 | 0.0 | 0.0 | 0.00 | 0.00 | 0.00 | 1015.6 | ||
| 20260507121551 | 0 | 0.0 | 0.0 | 0.00 | 0.00 | 0.00 | 1015.4 | ||
| 20260507120050 | 0 | 0.0 | 0.0 | 0.00 | 0.00 | 0.00 | 1015.0 | ||
| 20260507114556 | 0 | 0.0 | 0.0 | 0.00 | 0.00 | 0.00 | 1014.5 | ||
| 20260507113055 | 0 | 0.0 | 0.0 | 0.00 | 0.00 | 0.00 | 1014.6 | ||
| 20260507111551 | 0 | 0.0 | 0.0 | 0.00 | 0.00 | 0.00 | 1014.0 | ||
| 20260507110054 | 0 | 1.0 | 4.0 | 0.00 | 0.00 | 0.00 | 1013.8 | ||
| 20260507104558 | 66 | 4 | 0.0 | 4.0 | 0.00 | 0.00 | 0.00 | 92 | 1014.2 |
| 20260507103052 | 65 | 10 | 0.0 | 4.0 | 0.00 | 0.00 | 0.00 | 92 | 1014.1 |
| 20260507101553 | 65 | 355 | 1.0 | 5.0 | 0.00 | 0.00 | 0.00 | 92 | 1013.9 |
| 20260507100054 | 65 | 0 | 0.0 | 3.0 | 0.00 | 0.00 | 0.00 | 92 | 1013.9 |
| 20260507094552 | 65 | 360 | 2.0 | 5.0 | 0.00 | 0.00 | 0.00 | 92 | 1013.6 |
| 20260507093058 | 65 | 29 | 1.0 | 4.0 | 0.00 | 0.00 | 0.00 | 92 | 1013.5 |
| 20260507091559 | 65 | 345 | 2.0 | 5.0 | 0.00 | 0.00 | 0.00 | 92 | 1013.2 |
| 20260507090053 | 65 | 8 | 2.0 | 7.0 | 0.00 | 0.00 | 0.00 | 91 | 1013.3 |
| 20260507084551 | 65 | 55 | 2.0 | 7.0 | 0.00 | 0.00 | 0.00 | 91 | 1013.1 |
| 20260507083049 | 65 | 349 | 2.0 | 7.0 | 0.00 | 0.00 | 0.00 | 90 | 1013.4 |
| 20260507081550 | 65 | 1 | 1.0 | 6.0 | 0.00 | 0.00 | 0.00 | 90 | 1013.6 |
| 20260507080050 | 65 | 8 | 2.0 | 5.0 | 0.00 | 0.00 | 0.00 | 90 | 1013.4 |
| 20260507074552 | 66 | 57 | 3.0 | 7.0 | 0.00 | 0.00 | 0.00 | 89 | 1013.4 |
| 20260507073057 | 66 | 5 | 3.0 | 9.0 | 0.00 | 0.00 | 0.00 | 89 | 1013.6 |
| 20260507071553 | 66 | 21 | 3.0 | 9.0 | 0.00 | 0.00 | 0.00 | 89 | 1013.7 |
| 20260507070058 | 66 | 35 | 1.0 | 6.0 | 0.00 | 0.00 | 0.00 | 89 | 1013.9 |
| 20260507064553 | 66 | 354 | 1.0 | 8.0 | 0.00 | 0.00 | 0.00 | 89 | 1013.9 |
| 20260507063053 | 66 | 333 | 3.0 | 7.0 | 0.00 | 0.00 | 0.00 | 89 | 1013.7 |
| 20260507061552 | 66 | 10 | 3.0 | 8.0 | 0.00 | 0.00 | 0.00 | 89 | 1013.5 |
| 20260507054602 | 67 | 355 | 3.0 | 9.0 | 0.00 | 0.00 | 0.00 | 89 | 1013.2 |
| 20260507053058 | 67 | 330 | 2.0 | 7.0 | 0.00 | 0.00 | 0.00 | 89 | 1013.5 |
| 20260507051552 | 68 | 15 | 4.0 | 8.0 | 0.00 | 0.00 | 0.00 | 88 | 1013.2 |
| 20260507050052 | 68 | 305 | 4.0 | 8.0 | 0.00 | 0.00 | 0.00 | 88 | 1013.2 |
| 20260507044600 | 68 | 20 | 3.0 | 8.0 | 0.00 | 0.00 | 0.00 | 88 | 1013.3 |
| 20260507043058 | 68 | 18 | 3.0 | 7.0 | 0.00 | 0.00 | 0.00 | 88 | 1013.4 |
| 20260507041552 | 69 | 34 | 2.0 | 7.0 | 0.00 | 0.00 | 0.00 | 87 | 1013.2 |
| 20260507040055 | 69 | 354 | 5.0 | 12.0 | 0.00 | 0.00 | 0.00 | 86 | 1013.1 |